This is the latest recevied weather packets stored in our database for station/object KK6LZB. If no packets are shown the sender has not sent any weather packets the latest 10 day(s).
| Time | Temp. | Humidity | Pressure | Rain* | Wind** | Luminosity | Snow |
|---|---|---|---|---|---|---|---|
| 1777827641 | 16.11° C | 85% | 1016.4 hPa | 0 mm | - | 94 W/m² | - |
| 1777827338 | 16.11° C | 85% | 1016.6 hPa | 0 mm | - | 93 W/m² | - |
| 1777827034 | 16.11° C | 85% | 1016.4 hPa | 0 mm | - | 88 W/m² | - |
| 1777826732 | 16.11° C | 85% | 1016.4 hPa | 0 mm | - | 75 W/m² | - |
| 1777826428 | 16.11° C | 85% | 1016.4 hPa | 0 mm | - | 80 W/m² | - |
| 1777826126 | 16.11° C | 85% | 1016.3 hPa | 0 mm | - | 101 W/m² | - |
| 1777825822 | 16.11° C | 85% | 1016.5 hPa | 0 mm | - | 104 W/m² | - |
| 1777825519 | 16.11° C | 85% | 1016.3 hPa | 0 mm | - | 96 W/m² | - |
| 1777825218 | 16.11° C | 85% | 1016.2 hPa | 0 mm | - | 112 W/m² | - |
| 1777824914 | 16.67° C | 86% | 1016.1 hPa | 0 mm | - | 103 W/m² | - |
| 1777824610 | 16.67° C | 86% | 1016.2 hPa | 0 mm | - | 136 W/m² | - |
| 1777824308 | 16.67° C | 87% | 1016.1 hPa | 0 mm | - | 148 W/m² | - |
| 1777824003 | 16.67° C | 87% | 1016.1 hPa | 0 mm | - | 158 W/m² | - |
| 1777823699 | 16.11° C | 86% | 1016 hPa | 0 mm | - | 164 W/m² | - |
| 1777823396 | 16.11° C | 87% | 1016 hPa | 0 mm | - | 159 W/m² | - |
| 1777823094 | 16.67° C | 87% | 1016.1 hPa | 0 mm | - | 140 W/m² | - |
| 1777822792 | 16.67° C | 86% | 1016 hPa | 0 mm | - | 137 W/m² | - |
| 1777822490 | 17.22° C | 86% | 1016.2 hPa | 0 mm | - | 173 W/m² | - |
| 1777822187 | 16.67° C | 87% | 1016.1 hPa | 0 mm | - | 155 W/m² | - |
| 1777821884 | 16.67° C | 88% | 1016.1 hPa | 0 mm | - | 159 W/m² | - |
| 1777821581 | 16.67° C | 89% | 1016 hPa | 0 mm | - | 134 W/m² | - |
| 1777821279 | 16.67° C | 89% | 1016.2 hPa | 0 mm | - | 118 W/m² | - |
| 1777820976 | 16.67° C | 91% | 1016.1 hPa | 0 mm | - | 108 W/m² | - |
| 1777820673 | 16.11° C | 92% | 1015.9 hPa | 0 mm | - | 109 W/m² | - |
| 1777820368 | 15.56° C | 93% | 1016 hPa | 0 mm | - | 103 W/m² | - |
* Rain latest hour (hover to see other rain measurements)
** Current wind speed in m/s (hover to see current wind gust speed)